Change the Weather History Date:

Tuesday, October 9, 2012

  Actual Average Record
Temperature  
Mean Temperature 58 °F -  
Max Temperature 66 °F - - ()
Min Temperature 50 °F - - ()
Degree Days  
Heating Degree Days 7    
Growing Degree Days 8 (Base 50)    
Moisture  
Dew Point 34 °F    
Average Humidity 45    
Maximum Humidity 72    
Minimum Humidity 31    
Precipitation  
Precipitation 0.00 in - - ()
Sea Level Pressure  
Sea Level Pressure 29.98 in    
Wind  
Wind Speed 8 mph ()    
Max Wind Speed 14 mph    
Max Gust Speed -    
Visibility 6.2 miles    
Events      
T = Trace of Precipitation, MM = Missing Value Source: Averaged Metar Reports

Daily Weather History Graph

Daily Weather History Graph

Search for Another Location

Airport or City:

Trip Planner

Search our weather history database for the weather conditions in past years. The results will help you decide how hot, cold, wet, or windy it might be!

Date:

Astronomy

Oct. 09, 2012 Rise Set
Actual Time 7:37 AM EEST 7:01 PM EEST
Civil Twilight 7:10 AM EEST 7:28 PM EEST
Nautical Twilight 6:38 AM EEST 8:00 PM EEST
Astronomical Twilight 6:06 AM EEST 8:31 PM EEST
Moon 12:55 AM EEST (10/9) 3:18 PM EEST (10/9)
Length of Visible Light 12h 18m
Length of Day
11h 24m
Last Quarter, 40% of the Moon is Illuminated
Oct 9
Last Quarter
Oct 15
New
Oct 22
First Quarter
Oct 29
Full
Nov 7
Last Quarter

Hourly Weather History & Observations

Time (EEST) Temp. Dew Point Humidity Pressure Visibility Wind Dir Wind Speed Gust Speed Precip Events Conditions
12:20 AM 55.4 °F 28.4 °F 36% 30.01 in - NW 12.7 mph - N/A   Unknown
12:50 AM 53.6 °F 26.6 °F 35% 30.01 in - NNW 10.4 mph - N/A   Unknown
1:20 AM 55.4 °F 26.6 °F 33% 30.01 in - NNW 12.7 mph - N/A   Unknown
1:50 AM 53.6 °F 26.6 °F 35% 30.01 in - NNW 13.8 mph - N/A   Unknown
2:20 AM 53.6 °F 26.6 °F 35% 30.01 in - NNW 12.7 mph - N/A   Unknown
2:50 AM 53.6 °F 24.8 °F 33% 30.01 in - NW 11.5 mph - N/A   Unknown
3:20 AM 51.8 °F 26.6 °F 38% 30.01 in - NNW 11.5 mph - N/A   Unknown
3:50 AM 51.8 °F 26.6 °F 38% 30.01 in - North 10.4 mph - N/A   Unknown
4:20 AM 51.8 °F 26.6 °F 38% 30.01 in - NW 10.4 mph - N/A   Unknown
4:50 AM 51.8 °F 26.6 °F 38% 30.01 in - NNW 11.5 mph - N/A   Unknown
5:20 AM 50.0 °F 26.6 °F 40% 30.01 in - NNW 12.7 mph - N/A   Unknown
5:50 AM 50.0 °F 26.6 °F 40% 30.01 in - NNW 10.4 mph - N/A   Unknown
6:20 AM 51.8 °F 26.6 °F 38% 30.01 in - WNW 10.4 mph - N/A   Unknown
6:50 AM 50.0 °F 28.4 °F 43% 30.01 in - NNW 11.5 mph - N/A   Unknown
7:20 AM 50.0 °F 26.6 °F 40% 30.01 in - NW 10.4 mph - N/A   Unknown
7:50 AM 50.0 °F 28.4 °F 43% 30.01 in 6.2 mi NNW 9.2 mph - N/A   Scattered Clouds
8:50 AM 51.8 °F 28.4 °F 41% 30.01 in 6.2 mi NNW 8.1 mph - N/A   Scattered Clouds
9:50 AM 53.6 °F 30.2 °F 41% 30.01 in 6.2 mi NW 6.9 mph - N/A   Mostly Cloudy
10:50 AM 59.0 °F 30.2 °F 34% 30.01 in 6.2 mi Calm Calm - N/A   Mostly Cloudy
11:50 AM 60.8 °F 30.2 °F 31% 30.01 in 6.2 mi Calm Calm - N/A   Mostly Cloudy
12:50 PM 64.4 °F 33.8 °F 32% 29.98 in 6.2 mi Calm Calm - N/A   Mostly Cloudy
1:50 PM 66.2 °F 37.4 °F 35% 29.95 in 6.2 mi East 6.9 mph - N/A   Mostly Cloudy
2:50 PM 66.2 °F 39.2 °F 37% 29.95 in 6.2 mi SSE 8.1 mph - N/A   Mostly Cloudy
3:50 PM 66.2 °F 42.8 °F 43% 29.92 in 6.2 mi SSE 8.1 mph - N/A   Mostly Cloudy
4:50 PM 66.2 °F 41.0 °F 40% 29.92 in 6.2 mi SE 8.1 mph - N/A   Mostly Cloudy
5:50 PM 62.6 °F 44.6 °F 52% 29.92 in 6.2 mi ESE 8.1 mph - N/A   Mostly Cloudy
6:50 PM 59.0 °F 42.8 °F 55% 29.92 in 6.2 mi ESE 4.6 mph - N/A   Mostly Cloudy
7:50 PM 59.0 °F 44.6 °F 59% 29.92 in 6.2 mi Calm Calm - N/A   Mostly Cloudy
8:50 PM 57.2 °F 44.6 °F 63% 29.95 in 6.2 mi Calm Calm - N/A   Scattered Clouds
9:20 PM 55.4 °F 44.6 °F 67% 29.95 in - Calm Calm - N/A   Unknown
9:50 PM 53.6 °F 44.6 °F 72% 29.95 in - Variable 2.3 mph - N/A   Unknown
10:20 PM 53.6 °F 42.8 °F 67% 29.92 in - Variable 2.3 mph - N/A   Unknown
10:50 PM 51.8 °F 42.8 °F 71% 29.92 in - Variable 2.3 mph - N/A   Unknown
11:20 PM 53.6 °F 44.6 °F 72% 29.92 in - Calm Calm - N/A   Unknown
11:50 PM 53.6 °F 44.6 °F 72% 29.92 in - Variable 3.5 mph - N/A   Unknown